OneWeb SL0301

operational
NORAD ID: 49090 Int'l Des: 2021-075 Owner: ONEWEBN Country: UK Constellation: oneweb
LEOCIRCULARPOLARONEWEB_TYPE

Über OneWeb SL0301

Beschreibung wird geladen...

Live-Position

3D-Globus wird geladen...

Nächste Überflüge

Höhenverlauf

Altitude vs Time

uPlot chart will show altitude changes over time

Zweizeiliger Elementsatz

1 49090U 21075R 26033.45338073 -.00000170 00000-0 -50869-3 0 9995
2 49090 87.8949 17.3975 0001733 73.5411 286.5908 13.12443343216898
Epoch: 2. Feb. 2026 • Age: 17 hours

Aktueller Status

Höhe 1226.1 km
Geschwindigkeit 7.25 km/s
Subsatellitenpunkt 83.17°N, 154.87°W
Startdatum 21. Aug. 2021
Alter 4.4 years
Typ internet

Technische Details

Klassifizierung Payload
Masse 148.00 kg
Trockenmasse 140.00 kg
Gesamtmasse 148.00 kg
Länge 1.30 m
Durchmesser 1.00 m
Spannweite 5.00 m
Form Trapezoid+2 pan
Hersteller ONEWUS
Bus-Typ ARROW
Phasenstatus In Orbit
Besitzer/Staat ONEWEBN/UK

Große Konstellationen

Loading constellations...